Tracking 30995 objects as of 5-Jul-2025
HD Live streaming from Space Station
objects crossing your sky now

GALILEO-FM2

Track GALILEO-FM2 now!
GALILEO-FM2 is classified as:


NORAD ID: 37847
Int'l Code: 2011-060B
Perigee: 23,221.5 km
Apogee: 23,236.7 km
Inclination: 57.1 °
Period: 844.7 minutes
Semi major axis: 29600 km
RCS: 48.7715 m2 (large)
Launch date: October 21, 2011
Source: European Space Agency (ESA)
Launch site: FRENCH GUIANA (FRGUI)

GALILEO-FM2 is a navigation satellite part of the European Union's Galileo program.
Your satellite tracking list
Your tracking list is empty




NASA's NSSDC Master Catalog

Two Line Element Set (TLE):
1 37847U 11060B   25184.91689619 -.00000092  00000-0  00000-0 0  9998
2 37847  57.0928 351.2042 0002572  10.9514 341.3106  1.70476100 85181
Source of the keplerian elements: AFSPC